カタログに戻る

CZ-2C DEB

運用中SSO
NORAD 28484·DEBRIS·🇨🇳 China

打ち上げ Nov 18, 2004 から Xichang Satellite Launch Center

Loading…

次のパス (今後24時間)

TLE

最新Source: Space-Track

元期: Sep 14, 2026, 12:00 UTC

1 28484U 04046F   26257.50054860  .00002269  00000-0  44755-3 0  9997
2 28484  98.3652 340.2528 0072454 339.1320  33.2216 14.61855228146592

AllMySatでCZ-2C DEBをリアルタイム追跡

Download on the App Store